This is the latest recevied weather packets stored in our database for station/object JE6MIQ-13. If no packets are shown the sender has not sent any weather packets the latest 10 day(s).
| Time | Temp. | Humidity | Pressure | Rain* | Wind** | Luminosity | Snow |
|---|---|---|---|---|---|---|---|
| 1777905754 | 12.78° C | 41% | 1017 hPa | 0 mm | - | - | - |
| 1777905154 | 12.78° C | 41% | 1017.2 hPa | 0 mm | - | - | - |
| 1777904555 | 13.33° C | 37% | 1017.9 hPa | 0 mm | - | - | - |
| 1777903954 | 13.33° C | 36% | 1017.9 hPa | 0 mm | - | - | - |
| 1777903353 | 13.33° C | 38% | 1018.3 hPa | 0 mm | - | - | - |
| 1777902755 | 13.33° C | 41% | 1018.2 hPa | 0 mm | - | - | - |
| 1777902155 | 13.33° C | 38% | 1018.2 hPa | 0 mm | - | - | - |
| 1777901555 | 13.89° C | 34% | 1018.1 hPa | 0 mm | - | - | - |
| 1777900954 | 13.89° C | 33% | 1017.8 hPa | 0 mm | - | - | - |
| 1777900354 | 13.89° C | 34% | 1017.8 hPa | 0 mm | - | - | - |
| 1777899754 | 14.44° C | 31% | 1017.8 hPa | 0 mm | - | - | - |
| 1777899154 | 14.44° C | 28% | 1017.5 hPa | 0 mm | - | - | - |
| 1777898554 | 15° C | 32% | 1017.5 hPa | 0 mm | - | - | - |
| 1777897953 | 15° C | 25% | 1017.7 hPa | 0 mm | - | - | - |
| 1777897354 | 15.56° C | 28% | 1017.6 hPa | 0 mm | - | - | - |
| 1777896755 | 15.56° C | 25% | 1017 hPa | 0 mm | - | - | - |
| 1777896153 | 15.56° C | 26% | 1017 hPa | 0 mm | - | - | - |
| 1777895554 | 15.56° C | 25% | 1016.6 hPa | 0 mm | - | - | - |
| 1777894954 | 15.56° C | 25% | 1016.6 hPa | 0 mm | - | - | - |
| 1777894355 | 16.11° C | 25% | 1016.4 hPa | 0 mm | - | - | - |
| 1777893755 | 16.11° C | 25% | 1016 hPa | 0 mm | - | - | - |
| 1777893154 | 16.11° C | 25% | 1016 hPa | 0 mm | - | - | - |
| 1777892553 | 16.11° C | 25% | 1015.7 hPa | 0 mm | - | - | - |
| 1777891954 | 16.11° C | 25% | 1015.7 hPa | 0 mm | - | - | - |
| 1777891354 | 16.67° C | 25% | 1015.7 hPa | 0 mm | - | - | - |
* Rain latest hour (hover to see other rain measurements)
** Current wind speed in m/s (hover to see current wind gust speed)